SWR4WG LSZH-LYBE

Flight info

Callsign SWR4WG
Flight time 1h 24m
Altitude 35000
Route DEGES Z2 TUNUM Z204 GEDSO/N0447F370 DCT LUMUS DCT LAKIK DCT RIGMU
Aircraft A320/M-SDE2E3FGIRWXY/L

Departure

Time 2026-05-01 10:11
Airport Zürich Airport (LSZH)

Arrival

Time 2026-05-01 11:36
Airport Belgrade Nikola Tesla Airport (LYBE)
Time Latitude Longitude Altitude Speed Heading
2026-05-01 09:30 47.45185 8.55713 1407 ft 0 kts 186°
2026-05-01 09:58 47.45187 8.55713 1413 ft 2 kts 186°
2026-05-01 09:58 47.45212 8.55713 1411 ft 4 kts 168°
2026-05-01 09:59 47.45237 8.55701 1411 ft 4 kts 148°
2026-05-01 09:59 47.45258 8.55676 1413 ft 4 kts 128°
2026-05-01 09:59 47.45271 8.55642 1408 ft 4 kts 102°
2026-05-01 09:59 47.45273 8.55605 1406 ft 4 kts 72°
2026-05-01 10:00 47.45259 8.55581 1406 ft 4 kts
2026-05-01 10:00 47.45233 8.55584 1405 ft 4 kts 343°
2026-05-01 10:00 47.45208 8.55598 1413 ft 4 kts 335°
2026-05-01 10:00 47.45201 8.55602 1413 ft 0 kts 335°
2026-05-01 10:03 47.45207 8.55599 1413 ft 3 kts 336°
2026-05-01 10:03 47.45240 8.55580 1406 ft 8 kts 343°
2026-05-01 10:03 47.45302 8.55558 1408 ft 10 kts 338°
2026-05-01 10:04 47.45345 8.55530 1414 ft 11 kts 335°
2026-05-01 10:04 47.45422 8.55476 1412 ft 14 kts 335°
2026-05-01 10:04 47.45505 8.55441 1403 ft 10 kts 19°
2026-05-01 10:04 47.45522 8.55557 1406 ft 10 kts 96°
2026-05-01 10:05 47.45514 8.55668 1407 ft 12 kts 96°
2026-05-01 10:05 47.45508 8.55760 1411 ft 15 kts 96°
2026-05-01 10:05 47.45496 8.55922 1407 ft 17 kts 96°
2026-05-01 10:05 47.45483 8.56102 1407 ft 18 kts 96°
2026-05-01 10:06 47.45501 8.56257 1411 ft 14 kts 48°
2026-05-01 10:06 47.45558 8.56356 1413 ft 12 kts 51°
2026-05-01 10:06 47.45595 8.56467 1414 ft 13 kts 91°
2026-05-01 10:06 47.45586 8.56596 1417 ft 12 kts 96°
2026-05-01 10:07 47.45579 8.56707 1420 ft 10 kts 96°
2026-05-01 10:07 47.45572 8.56793 1420 ft 7 kts 96°
2026-05-01 10:07 47.45568 8.56854 1420 ft 5 kts 95°
2026-05-01 10:07 47.45565 8.56897 1420 ft 3 kts 96°
2026-05-01 10:08 47.45562 8.56996 1421 ft 8 kts 72°
2026-05-01 10:08 47.45606 8.57017 1424 ft 8 kts 358°
2026-05-01 10:08 47.45652 8.57024 1425 ft 3 kts
2026-05-01 10:09 47.45666 8.57016 1425 ft 1 kts 319°
2026-05-01 10:09 47.45665 8.57010 1425 ft 0 kts 276°
2026-05-01 10:09 47.45665 8.57004 1425 ft 0 kts 271°
2026-05-01 10:10 47.45665 8.56988 1424 ft 13 kts 272°
2026-05-01 10:11 47.45703 8.56435 1416 ft 91 kts 276°
2026-05-01 10:11 47.45791 8.55200 1406 ft 148 kts 276°
2026-05-01 10:11 47.45904 8.53573 1822 ft 158 kts 277°
2026-05-01 10:11 47.46016 8.51961 2567 ft 158 kts 277°
2026-05-01 10:12 47.46128 8.50268 2991 ft 176 kts 277°
2026-05-01 10:12 47.46207 8.48367 3360 ft 194 kts 264°
2026-05-01 10:12 47.44900 8.44517 4254 ft 222 kts 239°
2026-05-01 10:13 47.44141 8.42518 5084 ft 224 kts 241°
2026-05-01 10:13 47.43309 8.40584 5920 ft 224 kts 226°
2026-05-01 10:13 47.42050 8.39223 6674 ft 232 kts 204°
2026-05-01 10:14 47.38727 8.39514 7877 ft 256 kts 142°
2026-05-01 10:14 47.37696 8.41582 8809 ft 254 kts 107°
2026-05-01 10:14 47.37623 8.44141 9668 ft 258 kts 82°
2026-05-01 10:14 47.37883 8.46869 10112 ft 277 kts 84°
2026-05-01 10:15 47.38057 8.49743 10708 ft 289 kts 86°
2026-05-01 10:15 47.38197 8.52816 10990 ft 312 kts 86°
2026-05-01 10:15 47.38335 8.56123 11359 ft 330 kts 87°
2026-05-01 10:15 47.38479 8.59533 12050 ft 336 kts 86°
2026-05-01 10:16 47.38633 8.62993 12818 ft 340 kts 86°
2026-05-01 10:16 47.38796 8.66486 13582 ft 343 kts 86°
2026-05-01 10:16 47.39134 8.73583 15000 ft 350 kts 86°
2026-05-01 10:17 47.39304 8.77173 15676 ft 352 kts 86°
2026-05-01 10:17 47.39641 8.84442 17011 ft 357 kts 86°
2026-05-01 10:17 47.39811 8.88117 17656 ft 360 kts 86°
2026-05-01 10:18 47.40156 8.95569 18895 ft 367 kts 86°
2026-05-01 10:18 47.40325 8.99338 19434 ft 370 kts 85°
2026-05-01 10:18 47.40496 9.03154 19972 ft 374 kts 85°
2026-05-01 10:19 47.40669 9.06999 20516 ft 377 kts 85°
2026-05-01 10:19 47.40841 9.10885 21056 ft 381 kts 85°
2026-05-01 10:19 47.41014 9.14800 21581 ft 385 kts 85°
2026-05-01 10:20 47.41619 9.22643 22664 ft 389 kts 76°
2026-05-01 10:20 47.42222 9.26560 23188 ft 392 kts 76°
2026-05-01 10:20 47.42828 9.30497 23672 ft 396 kts 76°
2026-05-01 10:20 47.43435 9.34483 24123 ft 399 kts 76°
2026-05-01 10:21 47.44042 9.38495 24561 ft 401 kts 76°
2026-05-01 10:21 47.45259 9.46583 25394 ft 406 kts 76°
2026-05-01 10:21 47.45869 9.50667 25791 ft 408 kts 76°
2026-05-01 10:22 47.47005 9.58935 26560 ft 414 kts 82°
2026-05-01 10:22 47.46885 9.67503 27355 ft 420 kts 92°
2026-05-01 10:23 47.46648 9.71813 27713 ft 422 kts 92°
2026-05-01 10:23 47.46156 9.80514 28403 ft 427 kts 92°
2026-05-01 10:23 47.45912 9.84889 28738 ft 429 kts 92°
2026-05-01 10:24 47.45420 9.93724 29371 ft 433 kts 91°
2026-05-01 10:24 47.44922 10.02587 29988 ft 437 kts 92°
2026-05-01 10:25 47.44400 10.11568 30587 ft 440 kts 91°
2026-05-01 10:25 47.43707 10.20581 31072 ft 445 kts 97°
2026-05-01 10:26 47.43103 10.25073 31350 ft 445 kts 97°
2026-05-01 10:26 47.42500 10.29549 31673 ft 444 kts 97°
2026-05-01 10:26 47.41292 10.38481 32307 ft 442 kts 97°
2026-05-01 10:27 47.40087 10.47361 33005 ft 439 kts 97°
2026-05-01 10:27 47.38882 10.56158 33736 ft 436 kts 97°
2026-05-01 10:28 47.38275 10.60536 34064 ft 435 kts 96°
2026-05-01 10:28 47.37065 10.69248 34601 ft 433 kts 96°
2026-05-01 10:28 47.36459 10.73611 34858 ft 433 kts 97°
2026-05-01 10:29 47.35248 10.82264 35332 ft 433 kts 97°
2026-05-01 10:29 47.34628 10.86657 35608 ft 432 kts 97°
2026-05-01 10:30 47.33411 10.95270 36081 ft 431 kts 97°
2026-05-01 10:30 47.32187 11.03918 36391 ft 431 kts 97°
2026-05-01 10:31 47.30954 11.12560 36789 ft 431 kts 98°
2026-05-01 10:31 47.29713 11.21195 37137 ft 431 kts 98°
2026-05-01 10:32 47.28466 11.29820 37356 ft 429 kts 97°
2026-05-01 10:32 47.27844 11.34110 37352 ft 428 kts 97°
2026-05-01 10:33 47.24899 11.51111 37356 ft 435 kts 110°
2026-05-01 10:34 47.19843 11.62410 37369 ft 443 kts 120°
2026-05-01 10:34 47.16302 11.69829 37380 ft 443 kts 119°
2026-05-01 10:35 47.11004 11.80904 37366 ft 444 kts 119°
2026-05-01 10:35 47.07872 11.88603 37345 ft 434 kts 107°
2026-05-01 10:36 47.05193 12.01193 37359 ft 431 kts 101°
2026-05-01 10:37 47.03465 12.09597 37351 ft 430 kts 101°
2026-05-01 10:37 47.00871 12.22191 37360 ft 430 kts 101°
2026-05-01 10:38 46.99132 12.30580 37365 ft 430 kts 101°
2026-05-01 10:38 46.97384 12.38964 37372 ft 430 kts 102°
2026-05-01 10:39 46.95650 12.47276 37363 ft 430 kts 102°
2026-05-01 10:39 46.93905 12.55651 37360 ft 430 kts 102°
2026-05-01 10:40 46.92152 12.64008 37348 ft 429 kts 102°
2026-05-01 10:40 46.90396 12.72344 37342 ft 430 kts 102°
2026-05-01 10:41 46.88621 12.80692 37362 ft 430 kts 102°
2026-05-01 10:42 46.85964 12.93189 37361 ft 429 kts 102°
2026-05-01 10:42 46.84183 13.01509 37350 ft 428 kts 102°
2026-05-01 10:43 46.82395 13.09805 37348 ft 429 kts 102°
2026-05-01 10:43 46.80596 13.18127 37379 ft 430 kts 102°
2026-05-01 10:44 46.78792 13.26443 37362 ft 430 kts 102°
2026-05-01 10:44 46.76994 13.34685 37371 ft 429 kts 102°
2026-05-01 10:45 46.75179 13.42987 37370 ft 429 kts 102°
2026-05-01 10:45 46.73366 13.51285 37368 ft 429 kts 102°
2026-05-01 10:46 46.71541 13.59581 37408 ft 430 kts 102°
2026-05-01 10:46 46.69711 13.67864 37400 ft 429 kts 102°
2026-05-01 10:47 46.67881 13.76120 37393 ft 427 kts 101°
2026-05-01 10:47 46.66047 13.84365 37402 ft 429 kts 102°
2026-05-01 10:48 46.64192 13.92619 37430 ft 428 kts 102°
2026-05-01 10:48 46.62346 14.00857 37425 ft 428 kts 102°
2026-05-01 10:49 46.60508 14.09023 37430 ft 428 kts 102°
2026-05-01 10:49 46.58642 14.17236 37424 ft 427 kts 102°
2026-05-01 10:50 46.56763 14.25437 37418 ft 427 kts 102°
2026-05-01 10:50 46.54875 14.33617 37412 ft 426 kts 102°
2026-05-01 10:51 46.52985 14.41759 37415 ft 426 kts 102°
2026-05-01 10:51 46.51093 14.49916 37409 ft 426 kts 102°
2026-05-01 10:52 46.49188 14.58065 37410 ft 426 kts 102°
2026-05-01 10:52 46.47281 14.66202 37416 ft 426 kts 102°
2026-05-01 10:53 46.45374 14.74341 37409 ft 426 kts 102°
2026-05-01 10:53 46.43780 14.81098 37392 ft 426 kts 102°
2026-05-01 10:54 46.41545 14.90541 37385 ft 426 kts 102°
2026-05-01 10:54 46.39927 14.97347 37390 ft 426 kts 102°
2026-05-01 10:55 46.37989 15.05461 37419 ft 426 kts 102°
2026-05-01 10:55 46.36049 15.13570 37412 ft 427 kts 102°
2026-05-01 10:56 46.34115 15.21642 37396 ft 427 kts 102°
2026-05-01 10:56 46.32159 15.29760 37401 ft 427 kts 102°
2026-05-01 10:57 46.30191 15.37877 37439 ft 427 kts 102°
2026-05-01 10:57 46.28225 15.45970 37425 ft 426 kts 102°
2026-05-01 10:58 46.26256 15.54044 37418 ft 425 kts 102°
2026-05-01 10:58 46.24287 15.62105 37414 ft 425 kts 102°
2026-05-01 10:59 46.22312 15.70161 37412 ft 426 kts 102°
2026-05-01 10:59 46.20340 15.78163 37412 ft 426 kts 102°
2026-05-01 11:00 46.18347 15.86220 37410 ft 426 kts 102°
2026-05-01 11:00 46.16355 15.94254 37413 ft 425 kts 102°
2026-05-01 11:01 46.14361 16.02291 37413 ft 426 kts 103°
2026-05-01 11:01 46.12357 16.10319 37445 ft 426 kts 103°
2026-05-01 11:02 46.10343 16.18347 37413 ft 426 kts 103°
2026-05-01 11:02 46.08329 16.26376 37406 ft 426 kts 103°
2026-05-01 11:03 46.06304 16.34394 37400 ft 426 kts 103°
2026-05-01 11:03 46.04261 16.42413 37397 ft 426 kts 103°
2026-05-01 11:04 46.02235 16.50369 37423 ft 426 kts 103°
2026-05-01 11:04 46.00193 16.58377 37415 ft 427 kts 103°
2026-05-01 11:05 45.98144 16.66386 37405 ft 427 kts 103°
2026-05-01 11:05 45.96090 16.74398 37398 ft 427 kts 103°
2026-05-01 11:06 45.94031 16.82401 37430 ft 427 kts 104°
2026-05-01 11:06 45.91964 16.90408 37413 ft 428 kts 104°
2026-05-01 11:07 45.88836 17.02428 37401 ft 429 kts 104°
2026-05-01 11:07 45.86740 17.10439 37395 ft 429 kts 104°
2026-05-01 11:08 45.84638 17.18468 37421 ft 429 kts 104°
2026-05-01 11:09 45.81488 17.30459 37394 ft 431 kts 104°
2026-05-01 11:09 45.79370 17.38496 37396 ft 431 kts 105°
2026-05-01 11:10 45.76180 17.50558 37388 ft 432 kts 105°
2026-05-01 11:10 45.74033 17.58602 37403 ft 433 kts 105°
2026-05-01 11:11 45.71871 17.66651 37395 ft 434 kts 105°
2026-05-01 11:11 45.69706 17.74711 37397 ft 434 kts 105°
2026-05-01 11:12 45.67545 17.82768 37387 ft 434 kts 105°
2026-05-01 11:12 45.65367 17.90836 37413 ft 435 kts 105°
2026-05-01 11:13 45.63177 17.98918 37388 ft 436 kts 105°
2026-05-01 11:13 45.60986 18.06994 37385 ft 436 kts 105°
2026-05-01 11:14 45.60048 18.11088 37268 ft 432 kts 98°
2026-05-01 11:14 45.59419 18.15279 36481 ft 433 kts 96°
2026-05-01 11:14 45.58820 18.19490 35669 ft 432 kts 96°
2026-05-01 11:14 45.58229 18.23687 34914 ft 429 kts 95°
2026-05-01 11:15 45.57651 18.27793 34007 ft 428 kts 95°
2026-05-01 11:15 45.57066 18.31930 33168 ft 423 kts 95°
2026-05-01 11:15 45.56481 18.36036 32294 ft 418 kts 95°
2026-05-01 11:15 45.55897 18.40080 31503 ft 412 kts 95°
2026-05-01 11:16 45.55320 18.44034 30917 ft 403 kts 94°
2026-05-01 11:16 45.54753 18.47901 30325 ft 394 kts 94°
2026-05-01 11:16 45.54207 18.51637 29731 ft 386 kts 94°
2026-05-01 11:16 45.53665 18.55344 29191 ft 377 kts 94°
2026-05-01 11:17 45.53134 18.58972 28657 ft 370 kts 94°
2026-05-01 11:17 45.52611 18.62544 28164 ft 364 kts 94°
2026-05-01 11:17 45.52099 18.66057 27620 ft 359 kts 94°
2026-05-01 11:17 45.51593 18.69524 27105 ft 354 kts 94°
2026-05-01 11:18 45.51095 18.72936 26609 ft 350 kts 94°
2026-05-01 11:18 45.50598 18.76316 26120 ft 346 kts 94°
2026-05-01 11:18 45.50103 18.79661 25652 ft 343 kts 95°
2026-05-01 11:18 45.49612 18.82972 25187 ft 340 kts 95°
2026-05-01 11:19 45.49123 18.86257 24741 ft 337 kts 95°
2026-05-01 11:19 45.48638 18.89513 24293 ft 334 kts 95°
2026-05-01 11:19 45.48158 18.92731 23871 ft 331 kts 95°
2026-05-01 11:19 45.47687 18.95877 23419 ft 327 kts 95°
2026-05-01 11:20 45.47214 18.99029 23039 ft 325 kts 95°
2026-05-01 11:20 45.46741 19.02186 22613 ft 326 kts 95°
2026-05-01 11:20 45.46268 19.05342 22207 ft 325 kts 96°
2026-05-01 11:20 45.45793 19.08489 21786 ft 324 kts 96°
2026-05-01 11:21 45.45320 19.11619 21376 ft 323 kts 96°
2026-05-01 11:21 45.44848 19.14740 20952 ft 321 kts 96°
2026-05-01 11:21 45.44377 19.17848 20528 ft 320 kts 96°
2026-05-01 11:21 45.43906 19.20942 20104 ft 319 kts 96°
2026-05-01 11:22 45.43437 19.24021 19649 ft 318 kts 96°
2026-05-01 11:22 45.42972 19.27087 19225 ft 317 kts 96°
2026-05-01 11:22 45.42506 19.30147 18779 ft 316 kts 96°
2026-05-01 11:22 45.42037 19.33211 18305 ft 316 kts 96°
2026-05-01 11:23 45.41566 19.36257 17853 ft 315 kts 98°
2026-05-01 11:23 45.40845 19.39219 17414 ft 320 kts 109°
2026-05-01 11:23 45.39700 19.41994 16931 ft 337 kts 120°
2026-05-01 11:23 45.38144 19.44565 16410 ft 346 kts 127°
2026-05-01 11:24 45.36519 19.47091 15886 ft 346 kts 127°
2026-05-01 11:24 45.34879 19.49602 15359 ft 348 kts 131°
2026-05-01 11:24 45.30441 19.52577 14295 ft 363 kts 161°
2026-05-01 11:25 45.27991 19.53464 13716 ft 364 kts 162°
2026-05-01 11:25 45.23108 19.55188 12639 ft 360 kts 162°
2026-05-01 11:25 45.20681 19.56050 12098 ft 358 kts 162°
2026-05-01 11:26 45.18269 19.56913 11561 ft 356 kts 162°
2026-05-01 11:26 45.13580 19.58955 10474 ft 346 kts 143°
2026-05-01 11:26 45.11925 19.61212 10335 ft 320 kts 120°
2026-05-01 11:27 45.10778 19.63822 10205 ft 306 kts 117°
2026-05-01 11:27 45.09706 19.66349 10070 ft 293 kts 116°
2026-05-01 11:27 45.08683 19.68785 9873 ft 284 kts 116°
2026-05-01 11:27 45.07684 19.71185 9466 ft 282 kts 116°
2026-05-01 11:28 45.06692 19.73570 8978 ft 280 kts 116°
2026-05-01 11:28 45.05707 19.75932 8368 ft 279 kts 116°
2026-05-01 11:28 45.04721 19.78288 7775 ft 277 kts 117°
2026-05-01 11:29 45.02821 19.82779 7361 ft 255 kts 117°
2026-05-01 11:29 45.01906 19.84912 6833 ft 259 kts 117°
2026-05-01 11:29 44.99993 19.89377 5845 ft 265 kts 118°
2026-05-01 11:30 44.99047 19.91574 5503 ft 261 kts 119°
2026-05-01 11:30 44.98118 19.93730 5303 ft 251 kts 119°
2026-05-01 11:30 44.97232 19.95785 5167 ft 240 kts 119°
2026-05-01 11:30 44.96374 19.97775 4786 ft 233 kts 118°
2026-05-01 11:31 44.95544 19.99702 4431 ft 228 kts 118°
2026-05-01 11:31 44.94719 20.01623 4074 ft 230 kts 118°
2026-05-01 11:31 44.93887 20.03559 3721 ft 232 kts 119°
2026-05-01 11:31 44.93043 20.05518 3357 ft 235 kts 119°
2026-05-01 11:32 44.92194 20.07485 3034 ft 233 kts 119°
2026-05-01 11:32 44.91374 20.09384 3000 ft 219 kts 117°
2026-05-01 11:32 44.90601 20.11161 2950 ft 206 kts 119°
2026-05-01 11:32 44.89864 20.12849 2939 ft 199 kts 118°
2026-05-01 11:33 44.89137 20.14526 2764 ft 199 kts 118°
2026-05-01 11:33 44.88429 20.16162 2483 ft 192 kts 117°
2026-05-01 11:33 44.87744 20.17739 2055 ft 187 kts 120°
2026-05-01 11:33 44.87055 20.19206 1863 ft 173 kts 122°
2026-05-01 11:34 44.86420 20.20561 1692 ft 157 kts 120°
2026-05-01 11:34 44.85883 20.21820 1542 ft 147 kts 117°
2026-05-01 11:34 44.85369 20.23010 1365 ft 142 kts 118°
2026-05-01 11:34 44.84829 20.24201 1140 ft 143 kts 120°
2026-05-01 11:35 44.84305 20.25354 1025 ft 141 kts 117°
2026-05-01 11:35 44.83797 20.26544 810 ft 141 kts 119°
2026-05-01 11:35 44.83274 20.27706 619 ft 140 kts 119°
2026-05-01 11:35 44.82757 20.28865 408 ft 139 kts 119°
2026-05-01 11:36 44.82266 20.29979 327 ft 120 kts 122°
2026-05-01 11:36 44.81912 20.30775 331 ft 71 kts 122°
2026-05-01 11:36 44.81752 20.31127 328 ft 18 kts 128°
2026-05-01 11:36 44.81668 20.31212 330 ft 14 kts 158°
2026-05-01 11:37 44.81580 20.31226 334 ft 12 kts 190°
2026-05-01 11:37 44.81507 20.31186 335 ft 10 kts 211°
2026-05-01 11:37 44.81462 20.31116 334 ft 9 kts 242°
2026-05-01 11:37 44.81482 20.31026 333 ft 13 kts 300°
2026-05-01 11:38 44.81533 20.30908 330 ft 16 kts 302°
2026-05-01 11:38 44.81595 20.30766 333 ft 18 kts 302°
2026-05-01 11:38 44.81667 20.30604 331 ft 21 kts 302°
2026-05-01 11:38 44.81749 20.30421 331 ft 23 kts 302°
2026-05-01 11:39 44.81837 20.30220 328 ft 25 kts 302°
2026-05-01 11:39 44.81932 20.30006 329 ft 27 kts 301°
2026-05-01 11:39 44.82026 20.29792 326 ft 18 kts 300°
2026-05-01 11:39 44.82085 20.29661 328 ft 12 kts 302°
2026-05-01 11:40 44.82120 20.29563 327 ft 10 kts 273°
2026-05-01 11:40 44.82074 20.29504 327 ft 9 kts 208°
2026-05-01 11:40 44.82021 20.29456 327 ft 8 kts 213°
2026-05-01 11:40 44.81974 20.29413 327 ft 8 kts 212°
2026-05-01 11:41 44.81928 20.29375 329 ft 8 kts 210°
2026-05-01 11:41 44.81885 20.29335 329 ft 7 kts 216°
2026-05-01 11:41 44.81873 20.29289 329 ft 5 kts 284°
2026-05-01 11:41 44.81886 20.29255 328 ft 2 kts 302°
2026-05-01 11:42 44.81891 20.29244 327 ft 1 kts 303°
2026-05-01 11:42 44.81894 20.29238 328 ft 1 kts 303°
2026-05-01 11:42 44.81895 20.29237 328 ft 0 kts 303°